This demonstration page uses our WeatherBlox Daily Observations layout. Learn more.

Left ArrowRight Arrow

34.16533, -84.80231

Hourly Observations for April 13, 2020

Temp ( °F °C ) Dew Point ( °F °C ) Humidity (%) Winds ( mph kmh ) Pressure ( in mb ) Visibility ( mi km ) Precip ( " mm )
12:06 am 00:06 Cloudy with Thunderstorms 72 22.2 67 19.4 84 84 SE 9 15 29.60 1002 5 8 0.03 0.76
12:21 am 00:21 Cloudy with Rain 72 22.2 68 20 87 87 SSE 8 13 29.60 1002 4 6 0.07 1.78
12:31 am 00:31 Cloudy with Nearby Thunderstorms 72 22.2 68 20 87 87 SSE 8 13 29.61 1003 4 6 0.11 2.79
12:46 am 00:46 Cloudy with Thunderstorms 72 22.2 68 20 87 87 SSE 16 26 29.57 1001 3 5 0.17 4.32
12:53 am 00:53 Cloudy with Thunderstorms 72 22.2 68 20 87 87 S 13 20 29.58 1002 3 5 0.20 5.08
1:04 am 01:04 Cloudy with Nearby Thunderstorms 72 22.2 68 20 87 87 SSE 12 19 29.56 1001 3 4 0.04 1.02
1:07 am 01:07 Cloudy with Strong Thunderstorms 72 22.2 68 20 87 87 SSW 9 15 29.67 1005 2 2 0.17 4.32
1:13 am 01:13 Cloudy with Strong Thunderstorms 68 20 65 18.3 90 90 SSW 16 26 29.64 1004 1 1 0.67 17.02
1:48 am 01:48 Cloudy with Strong Thunderstorms 66 19 64 18 94 94 S 10 17 29.67 1005 1 2 1.84 46.74
1:53 am 01:53 Cloudy with Strong Thunderstorms 66 18.9 64 17.8 93 93 VRB 7 11 29.65 1004 2 2 1.91 48.51
2:22 am 02:22 Cloudy with Thunderstorms 65 18.3 62 16.7 90 90 VRB 6 9 29.57 1001 3 5 0.42 10.67
2:24 am 02:24 Mostly Cloudy with Nearby Thunderstorms 65 18.3 62 16.7 90 90 VRB 3 6 29.58 1002 7 11 0.42 10.67
2:34 am 02:34 Partly Cloudy 65 18.3 62 16.7 90 90 Calm 29.60 1002 10 16 0.42 10.67
2:53 am 02:53 Clear 65 18.3 62 16.7 90 90 Calm 29.57 1001 10 16 0.42 10.67
3:53 am 03:53 Cloudy 67 19.4 62 16.7 84 84 VRB 6 9 29.60 1003 10 16 0.04 1.02
4:53 am 04:53 Clear 65 18.3 59 15 81 81 S 6 9 29.61 1003 10 16 0.00 0.00
5:53 am 05:53 Clear 64 17.8 52 11.1 65 65 VRB 7 11 29.64 1004 10 16 0.00 0.00
6:53 am 06:53 Mostly Cloudy 62 16.7 51 10.6 67 67 VRB 5 7 29.71 1006 10 16 0.00 0.00
7:42 am 07:42 Mostly Cloudy 61 16.1 52 11.1 72 72 VRB 3 6 29.78 1009 10 16 0.00 0.00
7:53 am 07:53 Mostly Cloudy 61 16.1 52 11.1 72 72 VRB 3 6 29.77 1008 10 16 0.00 0.00
8:13 am 08:13 Partly Cloudy 61 16.1 52 11.1 72 72 VRB 5 7 29.81 1010 10 16 0.00 0.00
8:53 am 08:53 Sunny 63 17.2 54 12.2 73 73 Calm 29.80 1009 10 16 0.00 0.00
9:53 am 09:53 Mostly Cloudy 65 18.3 54 12.2 68 68 VRB 3 6 29.83 1010 10 16 0.00 0.00
10:53 am 10:53 Mostly Cloudy 65 18.3 54 12.2 68 68 W 7 11 29.88 1012 10 16 0.00 0.00
11:53 am 11:53 Mostly Cloudy 67 19.4 55 12.8 66 66 VRB 3 6 29.91 1013 10 16 0.00 0.00
12:53 pm 12:53 Mostly Cloudy 69 20.6 54 12.2 59 59 VRB 5 7 29.91 1013 10 16 0.00 0.00
1:53 pm 13:53 Mostly Cloudy 70 21.1 54 12.2 57 57 VRB 5 7 29.92 1013 10 16 0.00 0.00
2:53 pm 14:53 Mostly Cloudy 70 21.1 54 12.2 57 57 VRB 5 7 29.93 1014 10 16 0.00 0.00
3:53 pm 15:53 Mostly Cloudy 69 20.6 53 11.7 57 57 VRB 3 6 29.94 1014 10 16 0.00 0.00
4:53 pm 16:53 Cloudy 70 21.1 53 11.7 55 55 VRB 5 7 29.96 1015 10 16 0.00 0.00
5:53 pm 17:53 Sunny 68 20 53 11.7 59 59 VRB 5 7 29.97 1015 10 16 0.00 0.00
6:53 pm 18:53 Partly Cloudy 66 18.9 51 10.6 59 59 VRB 3 6 29.98 1015 10 16 0.00 0.00
7:53 pm 19:53 Mostly Sunny 63 17.2 51 10.6 65 65 NNW 5 7 30.00 1016 10 16 0.00 0.00
8:53 pm 20:53 Mostly Cloudy 59 15 51 10.6 75 75 Calm 30.04 1017 10 16 0.00 0.00
9:53 pm 21:53 Cloudy 59 15 51 10.6 75 75 Calm 30.06 1018 10 16 0.00 0.00
10:26 pm 22:26 Cloudy 58 14.4 48 8.9 70 70 N 10 17 30.10 1019 10 16 0.00 0.00
10:53 pm 22:53 Cloudy 57 13.9 47 8.3 69 69 N 6 9 30.09 1019 10 16 0.00 0.00
11:53 pm 23:53 Cloudy 54 12.2 44 6.7 69 69 VRB 7 11 30.08 1019 10 16 0.00 0.00

Powered by AerisWeather